{"data":{"norad_id":59675,"intl_designator":"2024-084X","name":"STARLINK-31877","alt_names":[],"object_type":"PAYLOAD","status":"ACTIVE","operator":null,"country":"US","launch_date":"2024-05-06","launch_site_code":"AFETR","launch_vehicle":null,"mission":null,"orbit_class":"UNKNOWN","rcs_meters":null,"size_class":null,"mass_kg":null,"dimensions":null,"purposes":["comms"],"wikipedia_slug":null,"has_3d_model":false,"image_url":null,"decayed_at":null,"tle_current":{"epoch":"2026-09-21T19:05:59.027712Z","epoch_age_seconds":59413,"freshness":"FRESH","line1":"1 59675U 24084X   26264.79582208  .00001115  00000+0  50040-4 0  9991","line2":"2 59675  43.0004  14.4074 0000719 253.7379 106.3393 15.27578391134368","mean_motion":15.27578391,"eccentricity":7.19e-5,"inclination_deg":43.0004,"raan_deg":14.4074,"arg_perigee_deg":253.7379,"mean_anomaly_deg":106.3393,"bstar":5.004e-5,"rev_number":13436,"period_min":94.266848004922,"perigee_km":482.560594342,"apogee_km":483.54723359543,"semimajor_km":6861.1909139687,"source":"CELESTRAK","updated_at":"2026-09-22T09:00:49.030451Z"}}}